Weather History for PHLI - July, 2013

Change the Weather History Date:

Friday, July 5, 2013

  Actual Average Record
Temperature  
Mean Temperature 74 °F 79 °F  
Max Temperature 81 °F 84 °F 87 °F (1981)
Min Temperature 67 °F 74 °F 67 °F (1955)
Degree Days  
Heating Degree Days 0 0  
Month to date heating degree days 0 0  
Since 1 June heating degree days 0 0  
Since 1 July heating degree days 0 0  
Cooling Degree Days 9 14  
Month to date cooling degree days 49 70  
Year to date cooling degree days 1513 1703  
Since 1 June cooling degree days 431 464  
Growing Degree Days 24 (Base 50)    
Moisture  
Dew Point 68 °F    
Average Humidity 84    
Maximum Humidity 100    
Minimum Humidity 67    
Precipitation  
Precipitation 0.00 in 0.05 in 0.42 in (1962)
Month to date precipitation 0.14 0.27  
Year to date precipitation 15.64 17.72  
Snow  
Snow 0.00 in - - ()
Month to date snowfall 0.0  
Since 1 June snowfall 0.0  
Since 1 July snowfall 0.0  
Snow Depth 0.00 in    
Sea Level Pressure  
Sea Level Pressure 30.04 in    
Wind  
Wind Speed 8 mph (NNW)    
Max Wind Speed 17 mph    
Max Gust Speed 21 mph    
Visibility 10 miles    
Events      
T = Trace of Precipitation, MM = Missing Value Source: NWS Daily Summary

Daily Weather History Graph

Daily Weather History Graph

Search for Another Location

Airport or City:

Trip Planner

Search our weather history database for the weather conditions in past years. The results will help you decide how hot, cold, wet, or windy it might be!

Date:

Astronomy

Jul. 05, 2013 Rise Set
Actual Time 5:59 AM HST 7:24 PM HST
Civil Twilight 5:34 AM HST 7:49 PM HST
Nautical Twilight 5:04 AM HST 8:19 PM HST
Astronomical Twilight 4:33 AM HST 8:50 PM HST
Moon 4:01 AM HST (7/5) 5:34 PM HST (7/5)
Length of Visible Light 14h 15m
Length of Day
13h 25m
Waning Crescent, 5% of the Moon is Illuminated
Jul 5
Waning Crescent
Jul 7
New
Jul 15
First Quarter
Jul 22
Full
Jul 29
Last Quarter

Hourly Weather History & Observations

Time (HST) Temp. Heat Index Dew Point Humidity Pressure Visibility Wind Dir Wind Speed Gust Speed Precip Events Conditions
12:04 AM 69.8 °F - 66.2 °F 88% 30.07 in 10.0 mi WNW 3.5 mph - N/A   Scattered Clouds
12:30 AM 69.8 °F - 66.2 °F 88% 30.06 in 10.0 mi WNW 4.6 mph - N/A   Mostly Cloudy
12:42 AM 69.8 °F - 66.2 °F 88% 30.06 in 10.0 mi WNW 4.6 mph - N/A   Scattered Clouds
12:53 AM 69.1 °F - 66.0 °F 90% 30.04 in 10.0 mi WNW 4.6 mph - N/A   Scattered Clouds
1:29 AM 68.0 °F - 66.2 °F 94% 30.05 in 10.0 mi West 4.6 mph - N/A   Mostly Cloudy
1:40 AM 69.8 °F - 66.2 °F 88% 30.05 in 10.0 mi WNW 4.6 mph - N/A   Mostly Cloudy
1:53 AM 68.0 °F - 66.0 °F 93% 30.04 in 10.0 mi WNW 4.6 mph - N/A   Scattered Clouds
2:16 AM 68.0 °F - 66.2 °F 94% 30.04 in 10.0 mi WNW 5.8 mph - N/A   Mostly Cloudy
2:31 AM 68.0 °F - 66.2 °F 94% 30.04 in 10.0 mi NW 4.6 mph - N/A   Scattered Clouds
2:53 AM 68.0 °F - 66.0 °F 93% 30.03 in 10.0 mi NW 4.6 mph - N/A   Scattered Clouds
3:53 AM 68.0 °F - 66.0 °F 93% 30.03 in 10.0 mi WNW 5.8 mph - N/A   Mostly Cloudy
4:53 AM 68.0 °F - 66.0 °F 93% 30.02 in 10.0 mi West 4.6 mph - N/A   Mostly Cloudy
5:02 AM 68.0 °F - 66.2 °F 94% 30.03 in 10.0 mi West 5.8 mph - N/A   Overcast
5:53 AM 66.9 °F - 66.0 °F 97% 30.03 in 10.0 mi WNW 5.8 mph - N/A   Mostly Cloudy
6:05 AM 66.2 °F - 66.2 °F 100% 30.03 in 10.0 mi WNW 5.8 mph - N/A   Scattered Clouds
6:53 AM 68.0 °F - 66.9 °F 96% 30.04 in 10.0 mi WNW 4.6 mph - N/A   Scattered Clouds
7:53 AM 75.0 °F - 68.0 °F 79% 30.06 in 10.0 mi North 5.8 mph - N/A   Scattered Clouds
8:53 AM 75.9 °F - 68.0 °F 76% 30.06 in 10.0 mi North 8.1 mph - N/A   Scattered Clouds
9:53 AM 78.1 °F - 68.0 °F 71% 30.06 in 10.0 mi NE 8.1 mph - N/A   Clear
10:53 AM 78.1 °F - 68.0 °F 71% 30.06 in 10.0 mi NE 9.2 mph - N/A   Clear
11:53 AM 80.1 °F 82.7 °F 68.0 °F 67% 30.05 in 10.0 mi ENE 11.5 mph - N/A   Clear
12:53 PM 80.1 °F 82.9 °F 69.1 °F 69% 30.04 in 10.0 mi NE 12.7 mph - N/A   Clear
1:53 PM 80.1 °F 82.9 °F 69.1 °F 69% 30.03 in 10.0 mi NE 15.0 mph - N/A   Clear
2:53 PM 81.0 °F 84.4 °F 70.0 °F 69% 30.01 in 10.0 mi NE 13.8 mph - N/A   Clear
3:53 PM 80.1 °F 83.2 °F 70.0 °F 71% 29.99 in 10.0 mi NE 16.1 mph - N/A   Clear
4:53 PM 79.0 °F - 69.1 °F 72% 29.98 in 10.0 mi NE 17.3 mph - N/A   Clear
5:53 PM 78.1 °F - 69.1 °F 74% 29.99 in 10.0 mi NNE 16.1 mph - N/A   Clear
6:53 PM 75.0 °F - 69.1 °F 82% 30.00 in 10.0 mi NNE 11.5 mph - N/A   Clear
7:53 PM 73.9 °F - 69.1 °F 85% 30.02 in 10.0 mi NNE 11.5 mph - N/A   Clear
8:53 PM 73.9 °F - 69.1 °F 85% 30.04 in 10.0 mi NNE 10.4 mph - N/A   Partly Cloudy
9:53 PM 73.0 °F - 69.1 °F 87% 30.06 in 10.0 mi North 6.9 mph - N/A   Scattered Clouds
10:53 PM 73.0 °F - 69.1 °F 87% 30.06 in 10.0 mi North 5.8 mph - N/A   Mostly Cloudy
11:53 PM 72.0 °F - 68.0 °F 87% 30.06 in 10.0 mi NW 3.5 mph - N/A   Partly Cloudy